Volver al catálogo

KENT RIDGE 1

ActivoCienciaVLEO
NORAD 41167·PAYLOAD·🇸🇬 Singapore

Lanzado Dec 16, 2015 desde Satish Dhawan Space Centre

Loading…

Próximos Pases (próximas 24 horas)

TLE

ActualizadoSource: Space-Track

Época: Sep 14, 2026, 08:11 UTC

1 41167U 15077B   26257.34124209  .00003335  00000-0  10419-3 0  9998
2 41167  14.9804 322.7144 0008134  58.2676 301.8438 15.23590302594713

Sigue KENT RIDGE 1 en tiempo real con AllMySat

Download on the App Store